sat.trackr.live / text

‹ back to catalog

STARLINK-31999

NORAD 60101 · 2024-117L

PAYLOAD ACTIVE UNKNOWN

§ Identity

Operator
Country
US
Launch date
2024-06-23
Launch site
AFETR
Launch vehicle
Mass (kg)
RCS (m²)

Purposes: comms

External: N2YO · Heavens-Above · Gunter

§ Orbital elements

Epoch: 2026-05-25T02:43:41.805984Z

Period
94.11 min
Inclination
53.1606°
Eccentricity
0.0001207
Mean motion
15.30196495 rev/d
Perigee alt
474.4 km
Apogee alt
476.1 km
Semi-major
6,853.4 km
B*
2.8716e-5
RAAN
42.4038°
Arg perigee
82.2515°
Mean anomaly
277.8623°
Rev number
10,858

§ Raw data

STARLINK-319991 60101U 24117L   26145.11367831  .00000491  00000+0  28716-4 0  99922 60101  53.1606  42.4038 0001207  82.2515 277.8623 15.30196495108585

JSON: /api/v1/satellites/60101 · /tle

For live sub-satellite position, see the globe view (requires WebGL).

§ Visibility from observer

Set your observer location to see the next 7 days of passes ≥ 10°. The values pass through the URL so the page stays shareable.

No JS? Fill the form by hand. The geolocation button needs JavaScript.